Location: Hac?musa Deresi
(39.1694°N, 32.2508°E)
Time: 01:02:03
(UTC+00:00)

Cosmos 1269 Rocket - Pass Details

Date: 22 April 2026
Orbit: 768 x 775 km, 74.1° (Epoch: 9 May)

Event Time Altitude Azimuth Distance (km) Brightness Sun altitude
Rises 19:23:08 0° 342° (NNW) 3,253 8.3 -28.2°
Reaches altitude 10° 19:25:31 10° 343° (NNW) 2,323 7.3 -28.5°
Enters shadow 19:30:00 64° 359° (N) 855 4.3 -29.0°
